This demonstration page uses our WeatherBlox Daily Observations layout. Learn more.

41.55636, -103.73856

Hourly Observations for November 24, 2015

Temp ( °F °C ) Dew Point ( °F °C ) Humidity (%) Winds ( mph kmh ) Pressure ( in mb ) Visibility ( mi km ) Precip ( " mm )
12:53 am 00:53 Clear 27 -2.8 20 -6.7 75 75 NE 3 6 29.85 1011 10 16.0934 0 0
1:53 am 01:53 Clear 25 -3.9 21 -6.1 85 85 ENE 3 6 29.85 1011 10 16.0934 0 0
2:53 am 02:53 Clear 26 -3.3 22 -5.6 84 84 Calm 29.83 1010 10 16.0934 0 0
3:53 am 03:53 Clear 25 -3.9 22 -5.6 88 88 N 3 6 29.84 1011 10 16.0934 0 0
4:53 am 04:53 Clear 27 -2.8 22 -5.6 81 81 Calm 29.86 1011 10 16.0934 0 0
5:53 am 05:53 Clear 25 -3.9 22 -5.6 88 88 Calm 29.88 1012 10 16.0934 0 0
6:53 am 06:53 Clear 26 -3.3 22 -5.6 84 84 NNE 3 6 29.87 1011 10 16.0934 0 0
7:53 am 07:53 Sunny 28 -2.2 25 -3.9 88 88 N 3 6 29.87 1012 10 16.0934 0 0
8:53 am 08:53 Sunny 31 -0.6 26 -3.3 82 82 NW 6 9 29.87 1012 10 16.0934 0 0
9:53 am 09:53 Sunny 37 2.8 27 -2.8 67 67 WNW 7 11 29.86 1011 10 16.0934 0 0
10:53 am 10:53 Sunny 46 7.8 28 -2.2 50 50 NW 5 7 29.81 1010 10 16.0934 0 0
11:53 am 11:53 Sunny 52 11.1 28 -2.2 40 40 VRB 5 7 29.78 1008 10 16.0934 0 0
12:53 pm 12:53 Sunny 57 13.9 27 -2.8 32 32 W 5 7 29.74 1007 10 16.0934 0 0
1:53 pm 13:53 Sunny 62 16.7 24 -4.4 23 23 W 8 13 29.72 1006 10 16.0934 0 0
2:53 pm 14:53 Sunny 62 16.7 20 -6.7 20 20 WNW 14 22 29.72 1006 10 16.0934 0 0
3:53 pm 15:53 Sunny 54 12.2 22 -5.6 29 29 NW 6 9 29.74 1007 10 16.0934 0 0
4:53 pm 16:53 Clear 46 7.8 22 -5.6 38 38 Calm 29.77 1008 10 16.0934 0 0
5:53 pm 17:53 Clear 43 6.1 23 -5 45 45 NW 6 9 29.8 1009 10 16.0934 0 0
6:53 pm 18:53 Clear 38 3.3 24 -4.4 57 57 Calm 29.82 1010 10 16.0934 0 0
7:53 pm 19:53 Clear 35 1.7 23 -5 61 61 ENE 6 9 29.8 1009 10 16.0934 0 0
8:53 pm 20:53 Clear 34 1.1 24 -4.4 67 67 Calm 29.81 1009 10 16.0934 0 0
9:53 pm 21:53 Clear 34 1.1 25 -3.9 70 70 NNE 3 6 29.78 1009 10 16.0934 0 0
10:53 pm 22:53 Clear 29 -1.7 23 -5 78 78 N 5 7 29.78 1008 10 16.0934 0 0
11:53 pm 23:53 Clear 29 -1.7 23 -5 78 78 NNW 6 9 29.76 1008 10 16.0934 0 0

Powered by AerisWeather